Temp
61 61 61 61 61 60 60 60 60 60 60 60 60 60 60 60 60 60 60 60 60 60 60 61 61 61 56 55 65 79 81 79 76 77 76 76 73 71 67 70 72 70 74 76 79 79 75
61 61 61 61 60 61 60 60 60 60 60 60 59 59 59 59 60 60 60 60 60 60 60 60 61 61 53 55 78 79 76 75 75 75 75 76 76 76 70 71 70 75 76 75 77 78 77
60 60 60 61 61 60 60 60 60 59 59 59 59 59 59 59 59 59 59 60 59 59 60 61 61 59 55 64 78 75 73 73 76 76 74 77 77 72 71 69 76 74 69 75 74 74 73
61 61 60 61 60 59 59 59 59 59 59 58 58 58 58 58 58 58 59 58 59 61 62 61 61 56 54 73 72 74 76 72 75 74 77 78 79 72 70 75 72 67 66 62 72 74 74
60 60 60 60 60 59 59 59 59 58 58 58 58 58 58 58 58 58 57 58 60 63 63 62 55 51 57 75 69 72 75 75 74 74 75 88 76 68 68 65 61 61 58 61 66 75 73
60 60 60 60 59 59 58 58 58 58 58 58 57 57 57 57 57 57 56 58 59 61 62 64 66 53 64 70 74 75 71 79 76 74 73 72 66 60 59 60 55 58 58 59 64 73 71
60 60 59 59 59 58 58 58 58 58 58 58 57 57 57 57 56 56 53 54 54 52 54 56 57 60 68 76 79 73 74 76 74 70 62 65 59 55 62 66 66 66 64 64 68 74 70
59 59 59 59 58 58 58 58 57 57 57 57 57 57 57 56 56 56 50 54 53 53 45 60 59 62 70 72 67 71 78 69 67 61 63 59 55 64 67 67 68 66 62 61 67 73 69
59 59 58 58 58 58 58 57 57 57 57 57 56 56 56 56 55 50 44 51 55 49 42 55 61 62 64 68 65 66 73 69 64 61 60 55 61 70 70 66 67 60 60 62 65 69 68
59 58 58 58 58 57 57 57 57 57 57 56 56 56 56 55 51 43 50 51 51 52 40 52 56 63 65 67 61 76 76 73 65 62 61 60 69 69 66 65 65 55 69 70 69 62 56
58 58 58 58 58 57 57 56 56 56 56 56 56 56 55 54 43 43 53 51 53 51 33 63 58 70 65 67 68 68 78 70 64 63 62 59 63 64 64 69 69 65 70 70 69 60 57
58 58 58 58 57 57 56 56 56 56 56 56 56 55 55 48 42 46 47 48 50 43 33 57 63 58 57 61 66 69 70 72 72 65 62 65 69 69 68 71 73 73 67 62 58 55 49
58 58 58 57 57 57 56 56 56 56 56 55 55 54 52 52 47 48 46 48 38 33 55 52 51 54 52 56 61 65 64 62 59 52 52 59 64 66 72 66 66 65 57 47 47 47 48
58 58 57 57 57 56 56 56 56 56 55 55 54 53 48 53 49 47 45 43 28 45 46 55 54 53 50 56 59 64 62 60 60 58 51 51 51 64 69 66 60 60 58 48 43 43 50
57 57 57 57 56 56 56 56 56 55 55 54 53 42 42 48 52 45 43 30 35 42 52 50 51 47 47 53 53 60 58 63 66 61 53 49 53 65 69 68 70 57 55 60 51 45 49
57 57 57 57 56 56 56 56 56 55 54 53 44 36 39 50 49 44 37 34 37 49 52 50 42 47 42 48 49 51 56 66 63 66 63 56 50 60 68 70 65 64 64 56 47 42 41
57 57 57 57 56 56 56 56 55 55 54 52 37 36 47 52 47 40 31 32 42 51 52 47 44 43 46 46 48 47 51 61 66 65 65 56 52 53 63 60 58 58 54 51 54 49 47
57 57 57 56 56 56 56 55 55 54 52 48 36 32 48 48 37 31 30 35 45 47 50 50 49 47 46 48 45 47 50 56 62 62 63 58 52 49 55 61 68 63 60 56 50 46 45
57 57 56 56 56 56 56 55 54 53 52 47 38 33 45 45 29 33 42 39 43 45 45 45 45 50 51 46 42 48 53 61 62 59 59 60 49 44 46 54 58 59 57 54 52 49 47
56 56 56 56 56 56 56 56 55 54 53 41 37 29 35 37 36 37 36 37 38 48 46 47 45 48 44 43 47 46 49 58 60 58 64 59 48 58 51 50 56 55 58 58 59 51 49
56 57 56 56 56 56 56 56 55 54 53 42 34 30 38 28 30 31 37 37 36 38 44 44 41 44 41 36 40 41 47 50 57 58 54 52 53 54 60 62 61 61 62 59 56 56 60
56 57 57 56 56 56 56 56 55 54 52 40 34 34 40 35 32 32 36 36 36 38 37 40 39 45 43 36 39 39 42 40 43 51 47 47 48 52 54 62 63 60 64 63 62 59 58
56 56 57 57 56 56 56 56 55 53 50 39 39 41 39 37 29 30 35 35 37 37 40 44 44 41 41 45 46 47 46 47 43 42 43 44 44 48 53 56 58 53 60 60 60 61 65
56 56 56 56 56 56 56 56 55 53 51 43 42 41 36 29 28 31 37 40 39 38 35 42 45 40 48 53 49 43 39 40 43 44 44 43 42 42 45 51 43 59 69 68 66 65 65
56 56 56 56 56 56 56 56 56 54 52 45 44 41 38 33 31 34 38 39 41 41 39 44 48 49 49 43 40 39 39 40 47 48 43 44 42 42 43 46 51 59 59 60 60 60 63
55 55 55 56 56 56 56 56 56 54 52 46 42 43 41 36 30 38 36 39 33 36 38 43 49 50 43 38 38 33 35 39 41 45 42 42 43 43 42 44 44 49 56 61 59 53 60
55 55 55 55 56 56 56 56 57 56 53 47 44 43 40 36 35 35 32 33 37 37 35 38 40 40 45 35 34 33 35 43 39 37 37 40 40 41 42 42 47 53 56 60 54 51 56
54 55 55 55 55 55 56 56 56 56 54 48 46 43 41 36 36 41 43 36 35 36 30 36 37 37 35 32 34 34 36 42 40 41 37 37 36 37 39 40 41 57 55 48 50 53 57
54 54 54 54 54 55 55 56 56 56 54 52 44 47 45 41 36 41 45 48 45 44 36 34 33 33 36 34 34 36 37 41 39 39 43 37 40 37 41 42 51 53 53 55 55 53 56
MSLP
1024.48 1024.15 1023.81 1023.47 1023.16 1022.80 1022.41 1021.95 1021.44 1020.94 1020.43 1019.82 1019.20 1018.57 1017.90 1017.20 1016.48 1015.75 1015.03 1014.35 1013.66 1013.20 1012.84 1012.63 1012.55 1012.36 1011.84 1010.93 1007.36 1005.16 1005.19 1005.48 1005.98 1006.46 1006.62 1006.60 1006.87 1007.10 1007.09 1006.81 1006.47 1006.41 1005.41 1004.83 1005.06 1005.80 1006.75
1024.76 1024.45 1024.06 1023.72 1023.37 1022.96 1022.58 1022.14 1021.62 1021.06 1020.46 1019.87 1019.24 1018.51 1017.73 1016.90 1016.09 1015.22 1014.38 1013.58 1012.98 1012.42 1012.14 1012.06 1012.21 1012.37 1012.05 1009.84 1005.12 1004.81 1004.96 1005.55 1005.76 1006.18 1006.46 1006.57 1006.28 1006.22 1006.41 1006.15 1005.97 1005.38 1005.14 1004.79 1005.13 1006.03 1006.94
1025.07 1024.71 1024.29 1023.89 1023.50 1023.14 1022.71 1022.24 1021.73 1021.20 1020.62 1019.95 1019.22 1018.47 1017.65 1016.75 1015.64 1014.68 1013.66 1012.77 1012.15 1011.28 1010.94 1011.17 1011.64 1012.06 1011.23 1006.62 1004.58 1004.63 1005.14 1005.26 1005.38 1005.64 1006.11 1005.98 1005.89 1006.06 1006.07 1005.91 1005.43 1005.20 1005.44 1005.32 1005.75 1006.35 1007.18
1025.28 1024.93 1024.52 1024.06 1023.72 1023.28 1022.83 1022.30 1021.76 1021.19 1020.57 1019.92 1019.18 1018.33 1017.47 1016.52 1015.42 1014.19 1012.92 1011.93 1011.24 1010.14 1009.62 1010.06 1011.03 1011.52 1009.32 1005.15 1004.81 1004.87 1004.84 1005.30 1005.49 1005.46 1005.63 1005.72 1005.85 1006.22 1006.18 1005.75 1005.55 1005.58 1005.71 1005.99 1006.10 1006.54 1007.22
1025.52 1025.12 1024.68 1024.22 1023.80 1023.39 1022.94 1022.41 1021.82 1021.20 1020.54 1019.81 1019.06 1018.19 1017.25 1016.26 1015.16 1013.86 1012.45 1011.11 1010.66 1010.00 1009.72 1010.24 1011.04 1010.83 1007.34 1004.58 1004.68 1003.72 1004.15 1004.56 1004.90 1005.66 1005.84 1005.64 1006.07 1006.42 1006.25 1006.28 1006.34 1006.36 1006.17 1006.25 1006.17 1006.26 1007.02
1025.72 1025.31 1024.85 1024.37 1023.93 1023.46 1022.98 1022.48 1021.93 1021.30 1020.54 1019.74 1018.93 1017.95 1017.11 1016.12 1014.80 1013.60 1011.94 1010.55 1010.60 1010.40 1010.65 1010.58 1010.24 1010.37 1006.13 1004.15 1003.42 1003.22 1003.57 1003.72 1004.33 1005.36 1006.07 1006.04 1006.43 1006.71 1006.75 1006.60 1006.37 1006.15 1006.02 1005.95 1005.84 1005.87 1006.70
1025.89 1025.49 1025.02 1024.50 1024.03 1023.58 1023.08 1022.51 1021.94 1021.28 1020.56 1019.80 1018.94 1017.86 1016.77 1015.90 1014.53 1013.56 1012.08 1010.80 1011.38 1010.98 1010.48 1009.55 1008.76 1007.34 1005.25 1003.87 1002.88 1002.98 1003.24 1003.68 1004.10 1004.82 1005.90 1006.26 1006.97 1006.68 1006.10 1005.44 1005.14 1005.36 1005.48 1005.69 1005.43 1005.46 1006.39
1026.11 1025.66 1025.22 1024.76 1024.27 1023.69 1023.09 1022.45 1021.84 1021.17 1020.47 1019.82 1019.07 1017.98 1016.67 1015.57 1014.36 1013.51 1012.75 1013.03 1013.98 1014.28 1011.65 1008.48 1007.30 1006.54 1004.86 1004.62 1004.32 1002.99 1002.93 1003.42 1004.06 1004.85 1005.62 1006.63 1006.48 1006.24 1005.96 1005.62 1005.20 1005.19 1005.28 1005.47 1005.33 1005.30 1006.29
1026.34 1025.88 1025.40 1024.88 1024.33 1023.76 1023.19 1022.50 1021.76 1021.09 1020.46 1019.72 1018.93 1018.08 1016.72 1015.38 1014.30 1013.96 1014.54 1014.00 1014.04 1013.81 1012.84 1007.08 1005.08 1004.15 1003.36 1004.07 1003.66 1002.76 1002.81 1002.74 1003.34 1004.48 1005.22 1005.95 1005.61 1005.67 1005.60 1005.51 1005.43 1005.29 1005.22 1005.30 1005.37 1005.80 1006.52
1026.48 1026.02 1025.47 1024.89 1024.33 1023.74 1023.15 1022.53 1021.84 1021.06 1020.40 1019.65 1018.76 1017.82 1016.94 1015.52 1014.58 1015.03 1014.28 1014.01 1013.79 1013.75 1011.91 1006.46 1003.99 1002.13 1002.15 1002.23 1002.26 1001.22 1001.58 1001.78 1002.76 1003.69 1004.85 1005.52 1004.99 1005.04 1005.17 1005.15 1005.02 1005.18 1004.78 1005.23 1005.74 1006.22 1006.92
1026.52 1026.02 1025.50 1024.91 1024.40 1023.80 1023.16 1022.56 1021.84 1021.02 1020.21 1019.46 1018.68 1017.60 1016.76 1016.29 1016.34 1015.54 1014.22 1013.61 1013.21 1013.22 1010.63 1004.21 1002.68 1001.38 1001.46 1001.32 1000.37 1000.13 1000.44 1001.13 1001.92 1002.73 1004.02 1004.26 1004.18 1004.52 1004.62 1003.90 1004.38 1004.68 1004.61 1005.35 1006.00 1006.82 1007.31
1026.43 1025.93 1025.46 1024.97 1024.50 1023.91 1023.28 1022.60 1021.92 1021.03 1020.12 1019.17 1018.40 1017.47 1016.80 1016.60 1016.64 1015.19 1014.25 1013.49 1013.07 1012.93 1009.18 1004.04 1002.51 1002.04 1002.16 1001.57 1000.56 1000.25 1000.31 1000.54 1001.31 1002.52 1003.18 1003.47 1003.30 1003.57 1003.29 1003.48 1003.80 1004.21 1005.16 1006.06 1007.12 1007.76 1008.34
1026.38 1026.00 1025.52 1024.99 1024.49 1023.90 1023.35 1022.76 1021.96 1021.06 1020.15 1019.04 1017.93 1017.16 1016.58 1016.40 1015.76 1014.77 1014.41 1013.68 1013.64 1011.48 1007.54 1005.63 1004.42 1003.80 1003.07 1001.81 1000.90 1000.21 1000.16 1000.39 1000.93 1002.30 1003.04 1003.36 1003.13 1002.66 1002.48 1003.04 1003.74 1004.37 1005.73 1007.46 1008.61 1008.68 1008.62
1026.46 1026.00 1025.50 1024.98 1024.38 1023.83 1023.30 1022.67 1021.90 1020.96 1020.00 1019.09 1017.74 1016.80 1016.41 1015.75 1015.22 1014.94 1014.76 1014.45 1013.87 1010.71 1008.65 1006.84 1005.85 1004.62 1003.68 1002.03 1000.98 1000.09 1000.11 1000.25 1000.70 1001.34 1002.60 1003.11 1003.23 1002.36 1001.90 1002.08 1003.07 1004.26 1005.38 1006.93 1008.04 1008.79 1008.43
1026.45 1025.95 1025.46 1024.90 1024.30 1023.79 1023.19 1022.47 1021.77 1020.92 1019.96 1019.09 1017.77 1017.14 1016.65 1015.36 1014.98 1014.99 1015.34 1014.90 1013.27 1011.52 1010.04 1008.54 1006.72 1005.67 1004.39 1003.07 1002.11 1000.52 1000.03 999.53 999.54 1000.03 1001.54 1002.66 1002.41 1001.43 1001.38 1001.51 1002.23 1004.46 1005.30 1005.95 1007.53 1008.82 1008.40
1026.36 1025.85 1025.33 1024.84 1024.30 1023.66 1023.01 1022.39 1021.74 1021.00 1020.09 1019.16 1018.60 1018.04 1016.86 1015.21 1014.66 1015.04 1015.56 1014.67 1013.13 1011.42 1010.49 1009.52 1008.50 1007.36 1006.32 1004.72 1003.15 1001.52 1000.30 999.19 999.63 999.83 1000.04 1001.44 1002.40 1001.46 1001.18 1001.41 1002.13 1002.63 1004.15 1006.00 1007.40 1008.54 1008.50
1026.19 1025.73 1025.20 1024.72 1024.14 1023.61 1023.00 1022.34 1021.65 1020.98 1020.22 1019.32 1019.28 1018.38 1016.00 1015.22 1014.94 1015.62 1015.82 1014.85 1012.95 1011.35 1010.88 1010.34 1009.37 1008.67 1007.39 1006.22 1004.56 1002.88 1001.26 1000.14 999.65 999.90 1000.18 1001.20 1001.61 1001.70 1001.27 1000.96 1001.60 1002.98 1003.88 1005.34 1006.20 1007.33 1007.53
1025.95 1025.50 1025.04 1024.52 1024.06 1023.53 1022.89 1022.24 1021.58 1020.90 1020.25 1019.74 1020.34 1019.48 1016.10 1015.45 1016.13 1016.84 1016.49 1015.75 1013.94 1011.78 1010.65 1010.20 1009.52 1009.12 1008.26 1007.20 1005.75 1004.27 1002.61 1001.38 1000.66 1000.16 1000.41 1000.53 1001.33 1002.12 1001.49 1000.85 1000.86 1001.69 1002.80 1003.78 1005.60 1007.35 1007.04
1025.66 1025.24 1024.83 1024.34 1023.88 1023.26 1022.72 1022.12 1021.55 1020.96 1020.50 1020.56 1020.68 1020.12 1016.97 1016.50 1017.72 1017.76 1016.71 1015.89 1014.55 1012.50 1011.25 1010.46 1009.94 1009.22 1008.65 1007.96 1007.11 1005.27 1003.55 1002.24 1001.79 1001.27 1000.87 1000.57 1000.97 1001.99 1001.70 1001.58 1001.32 1001.46 1002.40 1003.21 1004.18 1005.06 1005.62
1025.30 1024.94 1024.54 1024.09 1023.58 1023.05 1022.55 1021.98 1021.48 1021.00 1020.68 1021.04 1021.32 1020.90 1019.29 1018.68 1018.59 1018.34 1017.57 1016.12 1014.87 1013.12 1012.08 1011.22 1010.53 1009.73 1009.41 1008.26 1007.34 1006.07 1004.90 1003.40 1002.67 1002.49 1001.79 1001.16 1001.04 1000.88 1000.82 1000.64 1000.98 1001.50 1002.02 1002.65 1003.26 1004.62 1004.65
1025.11 1024.64 1024.21 1023.70 1023.23 1022.76 1022.27 1021.83 1021.39 1020.97 1020.75 1021.28 1021.67 1021.63 1021.19 1020.26 1019.40 1019.13 1018.19 1017.05 1015.57 1014.26 1012.98 1011.82 1011.07 1010.70 1010.28 1009.42 1008.16 1007.38 1006.52 1005.48 1003.92 1003.44 1002.80 1002.19 1001.71 1001.12 1000.78 1000.55 1000.45 1000.74 1001.29 1001.91 1002.48 1002.88 1003.09
1024.81 1024.24 1023.81 1023.40 1022.88 1022.38 1021.95 1021.57 1021.32 1020.96 1020.81 1021.36 1021.76 1021.61 1021.05 1020.53 1019.96 1019.30 1018.23 1017.03 1016.24 1015.26 1014.59 1012.56 1011.84 1011.04 1010.27 1009.77 1009.34 1009.03 1008.22 1007.16 1006.22 1004.96 1004.38 1003.54 1002.79 1001.63 1001.28 1000.78 1000.57 1000.60 1000.36 1000.74 1001.33 1001.76 1001.84
1024.20 1023.73 1023.44 1023.09 1022.61 1022.08 1021.61 1021.25 1021.05 1020.98 1020.99 1021.40 1021.29 1021.12 1021.17 1020.48 1020.12 1019.56 1018.26 1017.60 1016.58 1016.25 1014.42 1013.32 1012.49 1011.74 1010.36 1009.68 1009.54 1008.99 1008.73 1007.90 1007.54 1007.48 1006.12 1005.13 1004.00 1002.81 1002.12 1001.18 1001.11 1000.56 999.82 1000.29 1000.85 1000.88 1000.80
1023.72 1023.31 1022.93 1022.56 1022.15 1021.65 1021.26 1020.82 1020.56 1020.67 1020.78 1021.11 1021.05 1021.07 1021.07 1020.49 1020.18 1019.36 1018.28 1017.54 1016.83 1016.30 1015.63 1013.79 1012.83 1011.98 1010.26 1009.41 1008.46 1007.84 1008.06 1007.67 1007.52 1007.02 1006.85 1006.13 1005.03 1003.97 1003.23 1002.25 1001.38 999.49 999.12 999.90 1000.35 1000.68 1000.53
1023.12 1022.74 1022.27 1021.90 1021.48 1021.11 1020.70 1020.33 1019.98 1019.93 1020.06 1020.50 1020.60 1020.94 1020.67 1020.14 1019.90 1018.92 1017.98 1017.34 1016.63 1016.04 1015.14 1013.73 1012.45 1011.68 1010.74 1009.86 1009.08 1008.34 1007.89 1007.35 1006.48 1006.16 1006.45 1006.41 1005.73 1004.80 1003.88 1002.81 1001.48 1000.38 1000.72 1000.80 1001.00 1001.78 1001.77
1022.42 1022.03 1021.58 1021.18 1020.80 1020.37 1020.03 1019.76 1019.36 1019.21 1019.24 1019.77 1020.14 1020.23 1020.31 1020.08 1018.94 1018.36 1017.98 1017.36 1016.88 1016.06 1015.04 1013.58 1012.42 1011.09 1010.90 1010.62 1009.93 1009.21 1008.20 1007.12 1006.66 1006.29 1006.11 1006.26 1006.09 1005.52 1004.61 1003.73 1002.80 1003.04 1002.46 1002.19 1002.23 1002.80 1002.66
1021.67 1021.18 1020.82 1020.53 1020.20 1019.77 1019.42 1019.08 1018.78 1018.54 1018.59 1018.94 1019.34 1019.60 1019.80 1019.58 1018.28 1018.04 1017.83 1017.52 1016.98 1016.65 1016.32 1015.01 1013.78 1012.12 1011.29 1011.46 1011.11 1010.58 1009.20 1007.81 1007.45 1007.28 1007.34 1007.07 1006.83 1006.32 1005.52 1004.65 1004.07 1004.40 1003.42 1002.76 1003.50 1004.81 1003.74
1020.79 1020.44 1020.05 1019.82 1019.52 1019.11 1018.79 1018.43 1018.19 1017.90 1017.92 1018.26 1018.46 1018.84 1019.22 1019.00 1017.65 1017.14 1017.03 1017.06 1017.09 1017.06 1017.09 1015.92 1014.74 1014.18 1013.55 1013.10 1012.81 1012.13 1010.78 1009.38 1008.74 1008.36 1008.21 1008.03 1007.94 1007.47 1006.54 1005.88 1006.12 1004.66 1003.74 1004.44 1006.04 1005.24 1004.48
1019.94 1019.60 1019.34 1019.04 1018.69 1018.34 1017.99 1017.79 1017.57 1017.36 1017.30 1017.46 1018.07 1018.15 1018.63 1018.93 1017.46 1016.42 1016.05 1015.94 1016.02 1016.07 1016.48 1016.55 1016.38 1016.06 1015.10 1014.65 1014.18 1013.34 1012.28 1010.91 1010.09 1009.35 1008.82 1009.04 1008.90 1008.41 1007.78 1007.52 1007.18 1006.99 1006.83 1006.65 1006.40 1005.86 1004.91
Wind_Speed
19 19 19 19 20 20 21 21 21 22 23 24 25 25 25 25 25 26 25 25 24 22 21 18 15 12 5 2 13 4 6 14 10 9 5 6 6 5 4 5 2 5 6 6 9 15 8
19 19 19 20 21 21 21 22 22 23 24 24 25 25 26 26 26 26 26 25 24 23 21 17 11 5 2 7 7 3 4 9 8 7 8 6 8 7 4 4 2 3 6 4 9 12 9
17 18 19 20 21 21 22 22 23 23 24 25 25 25 25 27 28 28 28 28 26 26 22 15 9 5 2 20 2 3 3 5 8 6 7 5 1 3 2 3 3 3 3 7 5 7 6
18 18 19 19 20 21 22 22 23 24 25 25 26 26 26 27 28 30 31 30 27 20 11 9 13 6 11 7 5 10 6 5 3 4 4 3 4 4 3 4 5 2 5 4 4 8 4
18 18 18 19 19 20 21 22 23 24 25 25 26 26 27 28 29 31 32 29 16 9 11 17 8 4 11 3 3 8 8 7 6 5 3 3 5 4 1 3 4 5 6 4 3 8 8
18 18 19 19 20 21 22 23 24 24 25 25 26 27 27 29 31 31 33 23 5 5 8 5 3 2 5 4 5 3 4 8 4 9 5 4 3 3 3 4 6 5 4 4 6 9 8
19 19 19 20 21 21 22 23 24 24 24 25 27 29 29 29 31 31 16 5 7 4 5 7 4 6 6 8 4 2 4 9 6 6 8 5 5 8 11 11 5 5 5 7 4 4 6
19 19 19 19 20 21 22 23 24 25 25 25 26 28 31 31 31 22 6 7 6 4 15 12 19 18 22 4 6 4 10 7 6 7 7 5 8 8 3 2 5 4 4 3 1 5 6
17 18 18 19 19 21 22 22 23 24 24 24 26 27 29 31 32 5 3 4 3 1 5 11 10 8 8 13 11 9 10 6 7 8 9 7 5 12 7 5 6 4 6 5 6 5 4
18 18 18 20 21 22 23 24 24 25 25 26 27 28 29 33 5 5 5 4 5 4 4 10 6 9 5 10 8 12 11 7 4 13 11 6 6 13 7 8 7 6 7 6 6 5 5
18 18 20 21 22 21 22 24 24 25 27 28 28 29 28 12 5 5 6 11 8 2 7 3 3 1 5 10 5 11 8 4 10 8 10 9 8 12 13 16 10 9 8 9 4 4 5
18 19 20 21 22 22 22 22 24 25 26 28 29 29 30 3 2 8 8 10 3 5 11 6 3 2 3 4 5 5 6 3 6 7 3 9 5 10 10 5 11 7 7 9 6 5 1
18 19 19 20 21 21 21 22 23 25 26 28 30 29 18 1 5 5 7 4 3 6 7 7 6 7 5 5 5 7 14 12 11 9 6 4 8 3 6 7 3 7 7 3 3 2 7
18 18 19 19 20 20 21 22 23 24 26 27 31 28 3 4 6 5 4 6 3 4 7 6 7 11 5 1 7 7 13 15 3 7 6 9 8 11 6 9 9 8 10 8 5 4 5
18 19 19 19 19 19 20 21 22 23 25 28 26 5 5 3 6 2 5 3 8 3 6 9 11 5 6 5 4 6 9 22 20 12 10 8 8 1 6 5 12 4 6 7 9 4 3
19 19 20 19 19 19 20 21 22 22 24 26 7 4 5 6 3 4 5 6 5 3 8 6 4 4 5 7 7 5 8 13 9 9 8 7 4 5 8 6 1 10 11 4 3 7 4
18 19 20 19 19 19 20 20 21 21 21 20 4 6 4 10 2 5 4 7 5 5 6 5 4 7 6 5 5 5 2 6 1 10 7 8 6 4 7 9 10 5 4 5 8 5 8
18 19 19 19 19 19 19 20 20 20 18 5 3 5 5 7 5 2 3 8 8 5 2 8 5 7 6 6 6 4 4 4 10 3 15 8 7 5 10 2 7 8 10 8 8 4 1
18 19 19 19 19 18 18 19 19 16 13 3 5 4 6 4 4 5 8 6 6 5 4 3 4 2 6 4 5 4 4 3 12 9 6 8 3 4 2 4 4 6 5 6 7 4 9
19 19 19 18 18 18 17 18 16 12 10 4 3 5 5 5 1 4 6 7 6 8 6 3 4 5 5 4 7 7 5 7 11 5 8 1 5 14 11 4 7 4 5 5 8 6 6
18 19 18 18 18 17 17 16 13 12 8 3 3 2 1 5 4 5 6 4 8 7 6 5 3 5 5 5 5 3 3 7 5 9 6 3 11 7 10 6 6 7 8 9 6 7 13
18 19 19 18 19 17 16 15 11 9 6 3 0 2 2 6 5 5 4 1 5 7 5 5 3 12 6 2 2 5 7 3 3 8 7 6 1 5 9 10 8 4 11 15 9 6 5
18 19 19 18 18 17 17 15 8 7 4 1 2 2 1 4 5 3 3 4 4 7 7 12 9 8 6 1 4 13 10 11 6 4 4 5 2 4 13 8 6 9 8 8 6 6 11
19 18 19 18 18 18 17 16 12 4 5 3 3 1 2 4 1 3 8 14 14 8 5 15 17 4 7 16 14 4 5 9 6 10 6 4 2 2 5 8 9 9 9 11 5 3 2
19 19 19 19 18 17 17 17 15 7 7 3 2 2 3 4 3 10 8 4 11 6 11 15 8 6 12 7 5 4 3 1 5 6 6 7 1 3 7 7 4 3 5 3 4 4 9
19 19 20 19 18 17 17 17 17 10 5 3 3 3 1 3 5 4 5 5 4 3 8 5 9 8 4 2 2 1 4 3 2 2 6 5 3 4 2 7 8 2 10 9 6 2 8
19 20 19 19 19 18 18 17 17 14 5 5 3 5 2 3 5 4 2 1 5 3 4 5 13 9 5 5 4 4 3 4 2 3 4 3 3 5 2 3 3 13 17 9 10 3 12
20 19 19 18 18 18 18 18 17 15 11 6 2 6 4 3 6 8 6 4 3 1 2 6 8 6 5 7 4 3 3 4 2 3 3 3 2 1 0 1 2 20 5 7 6 6 9
20 19 18 17 16 17 17 16 16 14 10 9 2 3 3 3 7 2 7 11 10 13 4 3 3 2 4 4 3 3 3 4 4 2 5 4 2 3 2 4 1 4 7 2 4 5 7
Wind_Direction
21 15 16 13 11 8 4 1 358 355 352 349 347 344 340 337 333 329 324 319 312 309 307 305 308 317 343 259 246 171 104 133 143 157 212 171 151 168 199 211 220 200 270 229 161 155 138
19 17 12 11 8 4 1 358 356 353 350 347 345 341 337 334 329 325 320 314 311 304 297 290 287 293 186 245 241 249 256 147 161 157 163 178 195 200 204 238 182 259 297 60 146 142 135
16 14 10 7 5 2 359 358 355 352 349 346 342 339 335 332 328 324 319 316 313 303 291 267 235 192 209 233 219 23 27 165 164 161 147 218 219 144 168 255 275 312 84 61 76 133 139
15 13 10 8 5 1 358 356 353 351 347 343 340 337 334 331 328 324 321 318 317 311 300 204 176 178 244 243 262 272 223 268 141 161 127 157 183 218 205 285 19 65 62 105 200 132 165
13 11 8 6 4 1 357 355 352 349 345 341 339 335 333 332 329 325 322 317 323 15 91 130 129 191 262 285 208 229 155 191 156 152 179 127 132 187 137 147 31 1 158 145 184 164 153
11 9 7 5 2 359 356 353 351 348 344 340 339 334 334 333 328 328 322 314 257 95 113 194 139 336 259 222 231 178 182 166 145 120 131 153 77 118 37 111 193 187 144 141 185 193 164
7 5 3 2 360 358 355 352 348 345 342 340 338 334 333 333 326 330 330 16 10 350 11 227 214 274 284 307 324 205 157 135 118 105 152 177 129 191 196 192 148 145 129 164 231 200 135
5 2 0 358 355 354 352 350 347 345 343 341 339 335 332 331 328 328 334 72 81 272 299 248 243 251 259 23 312 294 142 126 146 161 128 80 206 205 201 186 132 126 119 177 237 165 142
2 358 356 356 355 354 352 349 347 344 342 341 339 337 332 330 326 29 331 98 41 295 241 283 214 208 202 159 211 243 168 152 146 142 166 154 227 158 155 180 174 177 164 168 159 107 53
357 355 355 356 355 353 351 348 345 343 341 341 339 337 337 330 34 321 323 355 316 198 311 273 248 264 153 135 241 185 185 157 156 175 135 191 197 168 169 183 146 195 176 155 153 113 189
355 354 354 354 352 350 348 344 340 339 339 339 338 334 340 348 286 329 297 328 324 96 320 244 202 135 178 187 162 211 168 101 163 159 129 222 172 163 177 197 160 216 154 161 131 110 92
351 351 349 349 348 347 344 341 338 339 339 337 335 332 337 352 335 250 312 305 71 54 247 311 73 24 119 273 306 83 152 113 147 120 108 192 180 163 194 154 168 170 86 49 53 102 49
347 346 344 345 344 342 340 337 338 338 339 337 332 328 327 328 281 319 319 12 39 197 326 338 342 359 311 226 233 175 177 168 160 134 163 160 209 203 150 111 111 84 82 25 22 62 210
345 344 344 341 339 339 338 338 339 338 338 337 328 323 304 230 290 324 3 55 220 266 284 348 333 307 225 170 246 203 169 179 231 112 130 155 200 177 196 171 165 169 153 149 152 192 224
340 341 340 339 337 336 336 338 339 338 337 335 325 337 308 266 280 81 65 106 208 262 333 319 320 333 315 338 15 181 191 192 189 161 144 140 235 194 172 145 138 184 159 176 103 5 97
336 336 336 334 335 335 336 337 336 337 334 334 327 355 284 301 338 69 87 224 241 242 348 343 322 5 312 314 359 12 174 192 183 172 137 200 165 218 191 111 142 149 170 122 13 134 201
331 331 334 334 333 335 334 333 334 333 332 336 28 357 263 325 68 50 185 231 262 266 358 329 319 324 285 297 326 300 301 360 184 179 142 145 117 225 120 194 160 141 161 60 110 136 164
328 329 332 331 332 332 331 331 331 332 332 41 25 343 314 352 47 52 335 319 300 301 268 249 242 230 249 301 297 292 306 16 340 302 183 199 142 185 195 179 169 164 174 145 134 198 122
324 327 329 330 329 327 329 331 334 337 350 330 332 277 308 43 52 343 319 297 277 310 292 331 292 339 292 266 293 270 275 359 14 23 193 178 197 128 94 7 353 177 172 120 104 94 184
323 328 327 327 324 323 328 333 341 342 358 75 17 342 322 21 306 358 316 310 307 306 278 335 273 336 334 263 210 269 325 313 350 2 334 114 152 193 204 205 134 132 142 157 151 168 165
321 325 323 324 317 321 323 329 341 342 355 84 38 280 1 303 331 317 301 282 309 341 333 300 355 0 300 289 309 261 336 314 312 351 360 97 204 180 192 161 153 155 171 169 160 169 192
318 318 319 319 315 322 320 322 347 348 17 73 39 347 3 286 286 298 289 322 304 337 305 309 18 330 302 285 139 295 15 275 285 325 12 351 289 130 197 200 182 202 189 180 184 156 206
311 311 316 316 315 318 320 323 338 338 68 19 275 266 194 275 308 324 282 345 307 344 273 250 309 320 302 218 295 269 223 255 259 330 315 18 77 130 211 158 115 243 206 166 169 183 179
306 308 309 309 310 310 313 315 324 323 201 168 243 170 257 279 251 257 291 296 303 317 277 290 300 270 276 316 299 247 203 241 239 242 201 304 79 106 150 107 198 233 202 169 159 117 178
302 304 304 306 306 305 305 307 310 308 222 184 180 177 246 283 246 292 329 326 319 316 305 293 284 254 299 303 348 357 328 272 248 220 178 198 120 113 137 177 235 149 31 77 135 126 30
301 301 300 301 300 299 300 300 302 307 255 163 202 182 235 301 252 252 316 296 294 346 317 297 299 314 333 33 26 289 205 216 168 68 51 108 88 95 115 145 186 101 315 310 278 165 13
301 299 299 299 299 299 296 293 295 301 297 161 214 181 151 251 257 162 193 293 307 336 275 300 340 333 26 1 48 18 323 309 51 40 336 73 45 166 192 217 66 346 311 289 159 223 319
302 301 299 299 298 296 295 294 295 298 300 170 202 181 169 235 269 217 218 197 295 257 247 306 346 356 339 36 29 330 331 1 344 41 358 81 75 63 51 154 108 341 13 79 290 296 304
306 304 302 298 293 291 291 293 295 299 296 199 192 182 159 233 248 255 229 240 198 213 141 351 228 228 260 19 2 320 338 337 327 83 345 43 125 184 144 145 187 324 124 197 261 259 292